Location: G�migny
(47.9646°N, 1.6950°E)
Time: 18:25:59
(UTC+00:00)

STARLINK-62 - Pass Details

Date: 23 October 2019
Orbit: 548 x 551 km, 53.0° (Epoch: 18 November)

Event Time Altitude Azimuth Distance (km) Brightness Sun altitude
Rises 18:43:36 0° 293° (WNW) 2,721 8.5 -19.5°
Reaches altitude 10° 18:45:53 10° 298° (WNW) 1,827 7.2 -19.9°
Maximum altitude 18:49:58 54° 17° (NNE) 674 3.9 -20.6°
Enters shadow 18:50:24 51° 42° (NE) 698 3.8 -20.7°
